Погода Великие Луки

Погода Великие Луки : погода сейчас, прогноз погоды и архив. Всё, что Вы хотите узнать о погоде Великие Луки!

Поиск расширенной информации на нашем сайте:

Другие новости

Новости СМИ2

Главная страница сайта

Новости сайта

03.07.2017

Напоминаем, что на нашем специализированном сайте Метеоцентр.Азия вы можете получить высокодетализированные автоматические прогнозы погоды по пунктам России, СНГ и мира в авиационном формате (включающие направление и скорость ветра, видимость, явления погоды, количество и форму облачности, нижнюю и верхнюю границу облачности).


Погода Великие Луки - сегодня

Время (UTC), дата Ветер
(°,м/с) 
Видим.   Явления Облачность Т
(°С)
Тd
(°С)
f(%) Тe
(°С)
Pmin
(гПа)
dP
(гПа)
Po
(мм)
O2
(г/м3)
Тmin Tmax R s Состояние
почвы
12 20.10.17 350 (С) 10 км    1/1 1000 м 
[Sc]
+8.5 +0.2 56 +9  1023  -0.5  758  296           
15 20.10.17 тихо ()   10 км    1/1 1000 м 
[Sc]
+3 +0.4 83 +3  1023.3  0.1  758  302           
18 20.10.17 тихо ()   10 км    ясно 
-1.7 -1.7 100 -2  1023.9  0.3  758  307    +9  0.1     
21 20.10.17 тихо ()   10 км    ясно 
-3.1 -3.1 100 -3  1024.1  0.2  758  309           
00 21.10.17 тихо ()   10 км    ясно 
-3.9 -3.9 100 -4  1023.9  -0.3  758  310           
03 21.10.17 тихо ()   10 км    ясно 
-4.7 -4.7 100 -5  1023.7  -0.2  758  311  -4.9         
06 21.10.17 тихо ()   2000 м  дымка  10/10 300 м 
[St]
-1.1 -1.1 100 -1  1023.6  0.1  758  307  -4.9         
09 21.10.17 020 (С) 4000 м  дымка{туман}  10/10 300 м 
[St]
+0.7 +0.7 100 +1  1023.7  0.2  758  304           
12 21.10.17 360 (С) 10 км  {туман}  3/3 1000 м 
[Cu med, cong]
+4.2 -1.1 68 +4  1022.2  -1.4  757  300           
15 21.10.17 360 (С) 10 км    10/10 600 м кучево-дожд. 
[Cb cap]
+2.6 -2.5 69 +2  1022.2  0.1  757  302           
18 21.10.17 тихо ()   10 км    1/0 
[Sc]
-0.5 -3.4 81 -1  1022.7  0.3  757  306    +4.2       
21 21.10.17 тихо ()   10 км    6/6 1000 м 
[Sc]
-2.9 -2.9 100 -3  1023.1  0.3  757  309           
00 22.10.17 тихо ()   10 км    ясно 
-5 -5 100 -5  1023.1  0.1  757  311           
03 22.10.17 тихо ()   10 км    ясно 
-5.8 -5.8 100 -6  1023  0.1  757  312  -5.9         
06 22.10.17 тихо ()   10 км    ясно 
-4.7 -4.7 100 -5  1022.8  -0.2  757  311  -6.8         
09 22.10.17 240 (ЮЗ) 10 км    4/3 1000 м верхняя 
[Cu med, cong|Ci fib]
+2.8 -0.8 77 +4  1022.1  -0.3  757  302           
12 22.10.17 270 (З) 10 км    10/10 1000 м 
[Sc diur, vesp]
+3.5 -4.4 56 +3  1020.9  -1.1  756  301           
15 22.10.17 тихо ()   10 км    8/8 600 м 
[Sc]
+2.1 -2.5 72 +2  1019.8  -1.2  755  302           
18 22.10.17 220 (ЮЗ) 10 км    4/4 1000 м 
[Sc]
-1.3 -3.1 88 -1  1019.9  0.1  755  306    +4.4       
21 22.10.17 210 (ЮЗ) 10 км    ясно 
-3.5 -4.3 94 -3  1020  755  309           
00 23.10.17 тихо ()   10 км    ясно 
-4.3 -4.4 99 -4  1020.1  0.1  755  310           
03 23.10.17 тихо ()   10 км    10/10 600 м 
[Sc]
-2.6 -2.6 100 -3  1020.6  0.6  755  308  -4.4         
06 23.10.17 тихо ()   10 км  в посл. час ливневой снег  9/9 600 м кучево-дожд. 
[Cb cap]
-1.3 -1.6 98 -1  1021.7  1.1  756  306  -4.4    0.0     
09 23.10.17 020 (С) 10 км    5/3 1000 м верхняя 
[Cu med, cong|Ci fib]
+2.2 -1.9 74 +2  1023  1.5  757  303           
12 23.10.17 360 (С) 10 км    3/3 1000 м 
[Cu hum]
+3 -3.2 64 +2  1023.7  0.7  758  302           
Время (UTC), дата Ветер
(°,м/с) 
Видим.   Явления Облачность Т
(°С)
Тd
(°С)
f(%) Тe
(°С)
Pmin
(гПа)
dP
(гПа)
Po
(мм)
O2
(г/м3)
Тmin Tmax R s Состояние
почвы

Для получения пояснительной информации подведите курсор к названию столбца.

ПОГОДА Великие Луки - архив

Всё, что Вы хотите узнать о погоде Великие Луки - удобно и подробно!

Выберите нужную дату (начиная с 1 января 2015* года) и нажмите кнопку "Найти".
Будут отображены архивные сводки погоды по пункту Великие Луки, начиная с указанной даты.


Отображать данные в формате CSV (для использования в таблицах Excel)


Внимание! Наш архив погоды предназначен исключительно для личного некоммерческого использования в познавательных целях. Если Вам необходимы официальные справки о состоянии погоды (для производственных, юридических, коммерческих и т.п. целей), обращайтесь в органы Росгидромета.

*Примечание: данная дата относится к архиву по метеостанциям СССР (Россия, СНГ, Балтия).
Архив по метеостанциям Зарубежной Европы и Азии (кроме Китая) хранится 10 дней, по другим регионам земного шара (Китай, Африка, Америка, Австралия, Океания) - 1 день.

Великие Луки - район местоположения метеостанции


Название, широта, долгота, высота метеостанции:
Великие Луки 56.3°ш. 30.6°д. 99 м над ур. моря [Российская Федерация]

Дополнительная информация

В oтличие oт бoльшинства пoгoдных сайтoв мы публикуем пoдрoбную метеoинфoрмацию в детальнoм прoфессиoнальнoм фoрмате.

Характеристики температуры и влажнoсти вoздуха измеряются на высoте 2 м в тени вдали oт зданий и деревьев.
Скoрoсть ветра измеряется на высoте 10 м (на урoвне рoста челoвека скoрoсть ветра ниже в 1.5-2 раза). Если метеoстанция нахoдится в гoрoде или в лесу, тo скoрoсть ветра занижена на 2-4 м/с пo сравнению с oткрытым местoм. Скoрoсть ветра над акватoриями крупных рек и oзёр, а также на вершинах хoлмoв на 2-5 м/с выше, чем в oбычных услoвиях.
Атмoсфернoе давление в разных тoчках местнoсти мoжет значительнo oтличаться oт давления на метеoстанции, в зависимoсти oт услoвий рельефа (при пoдъёме на 10 м давление пoнижается примернo на 1 мм рт.ст.).